Regional Weather Roundup
Issued by NWS

Home | Current Version | Previous Version | Graphics & Text | Print | Product List | Glossary On
Versions: 1 2 3 4 5 6 7 8 9 10 11 12 13 14 15 16 17 18 19 20 21 22 23 24 25 26 27 28 29 30 31 32 33 34 35 36 37 38 39 40 41 42 43 44 45 46 47 48 49 50
000
ASUS43 KMPX 290910
RWRMN
WEATHER ROUNDUP FOR MINNESOTA
NATIONAL WEATHER SERVICE TWIN CITIES/CHANHASSEN MN
400 AM CDT FRI JUL 29 2016


NOTE: "FAIR" INDICATES FEW OR NO CLOUDS BELOW 12,000 FEET WITH NO
SIGNIFICANT WEATHER AND/OR OBSTRUCTIONS TO VISIBILITY. N/A MEANS
CURRENT SKY AND/OR WEATHER CONDITIONS ARE NOT AVAILABLE.

MNZ060>063-068>070-291000-
   Twin Cities Metro

CITY           SKY/WX    TMP DP  RH WIND       PRES   REMARKS
TWIN CITIES    PTCLDY    63  56  78 N6        30.05F
ST PAUL        MOCLDY    64  57  78 VRB3      30.05F
CRYSTAL        PTCLDY    60  54  80 N6        30.05F
BLAINE         CLEAR     61  57  88 N6        30.06F
LAKEVILLE      CLOUDY    63  63 100 N3        30.04F
EDEN PRAIRIE   CLEAR     63  58  83 N6        30.04F
LAKEVILLE      CLOUDY    63  63 100 N3        30.04F
SOUTH ST PAUL  CLOUDY    64  56  75 N6        30.05S
LAKE ELMO      CLOUDY    63  57  82 CALM      30.06F
$$
MNZ001>005-007-008-013>017-022>024-027-028-291000-
   Northwest Minnesota

CITY           SKY/WX    TMP DP  RH WIND       PRES   REMARKS
BEMIDJI        CLEAR     55  54  94 CALM      30.10F
HALLOCK        CLEAR     54  52  94 CALM      30.10S
ROSEAU         CLEAR     54  48  82 CALM      30.11S
WARROAD        CLEAR     55  52  88 CALM      30.11S
THIEF RVR FALL CLEAR     57  54  89 CALM      30.11S
CROOKSTON      CLEAR     55  54  94 CALM      30.10F
FOSSTON        CLEAR     50  45  81 CALM      30.11S HAZE
DETROIT LAKES  CLEAR     63  59  88 CALM      30.11F
MOORHEAD       CLEAR     57  55  94 CALM      30.09F
PARK RAPIDS    CLEAR     56  53  90 CALM      30.10F
MAHNOMEN       PTSUNNY   53  53  98 CALM      30.09F FOG
$$
MNZ006-009>011-018-025>026-291000-
   North Central Minnesota

CITY           SKY/WX    TMP DP  RH WIND       PRES   REMARKS
BAUDETTE       PTCLDY    53  51  93 CALM      30.09F
FLAG ISLAND    CLEAR     64  59  82 CALM      30.09S
INTL FALLS     PTCLDY    50  48  93 CALM      30.10S
WASKISH        PTCLDY    55  54  94 CALM      30.09S
BIG FORK       CLEAR     52  48  87 CALM      30.11S
LONGVILLE      CLEAR     52  52 100 CALM      30.11S
GRAND RAPIDS   PTCLDY    54  53  97 CALM      30.13F
CRANE LAKE     MOCLDY    46  46 100 CALM      30.14R
ORR            PTCLDY    55  50  82 CALM      30.10S
COOK           CLOUDY    52  50  93 CALM      30.13S
WALKER         FAIR      54  53  97 CALM      30.10F
$$
MNZ012-019>021-037-291000-
   Northeast Minnesota

CITY           SKY/WX    TMP DP  RH WIND       PRES   REMARKS
DULUTH         CLEAR     51  49  92 CALM      30.11F
ELY            MOCLDY    48  46  93 CALM      30.13S
HIBBING        PTCLDY    45  45 100 CALM      30.12F
EVELETH        CLEAR     46  46  97 CALM      30.14S
DULUTH HARBOR  CLEAR     61  55  82 NE7       30.10F
TWO HARBORS    CLEAR     55  50  82 N5        30.09F
SILVER BAY     CLEAR     46  45  93 CALM      30.10F
GRAND MARAIS     N/A     55  51  86 CALM      30.10S
G MARAIS ARPRT CLEAR     46  43  87 NW5       30.14S
$$
MNZ029>031-032-039>041-046>048-054>057-064-291000-
   West Central Minnesota

CITY           SKY/WX    TMP DP  RH WIND       PRES   REMARKS
FERGUS FALLS   CLEAR     61  61 100 CALM      30.10S
WHEATON        CLEAR     63  61  94 W2        30.09F
MORRIS         CLEAR     61  59  94 NE3       30.08S
ALEXANDRIA     CLEAR     57  54  89 N3        30.10F
ELBOW LAKE     FAIR      62  60  91 CALM      30.09F
WADENA         CLEAR     55  54  94 CALM      30.10F
GLENWOOD       CLEAR     57  55  94 NE5       30.10S
APPLETON       CLEAR     61  57  88 CALM      30.07S
BENSON         CLEAR     55  52  88 CALM      30.08F
ORTONVILLE     PTCLDY    64  61  88 CALM      30.08S
MADISON        CLEAR     61  59  94 CALM      30.08S
WILLMAR        FAIR      59  55  88 NE5       30.08F
$$
MNZ033>034-036-042>043-049>051-058-059-291000-
   Central Minnesota

CITY           SKY/WX    TMP DP  RH WIND       PRES   REMARKS
ST CLOUD       CLEAR     56  55  97 N5        30.08F
SAUK CENTRE    FAIR      54  53  97 CALM      30.09F
PAYNESVILLE    CLEAR     56  55  99 CALM      30.09F
AITKIN         MOCLDY    55  52  88 CALM      30.10S
PINE RIVER     CLEAR     54  54 100 CALM      30.14S
BRAINERD       MOCLDY    59  58  96 N3        30.11S
STAPLES        CLEAR     55  55 100 CALM      30.11S
LONG PRAIRIE   FAIR      54  54 100 CALM      30.10F
LITTLE FALLS   PTCLDY    55  54  94 CALM      30.10F
LITCHFIELD     CLEAR     61  59  94 CALM      30.08S
BUFFALO        CLEAR     60  55  82 N6        30.07F
MAPLE LAKE     CLEAR     59  56  89 N3        30.08F
HUTCHINSON     CLEAR     62  58  87 N6        30.07S
$$
MNZ037-044-045-052-053-291000-
   East Central Minnesota

CITY           SKY/WX    TMP DP  RH WIND       PRES   REMARKS
PRINCETON      CLEAR     57  55  94 N3        30.08F
MORA           CLEAR     54  52  94 CALM      30.10F
CAMBRIDGE      CLEAR     57  50  77 CALM      30.06F
RUSH CITY      CLOUDY    53  51  92 N3        30.08F
MOOSE LAKE     FOG       55  54  94 CALM      30.09S VSB 1/2
HINCKLEY       FAIR      54  54 100 N5        30.10S
CLOQUET        CLEAR     50  48  93 N5        30.11F
MCGREGOR       CLOUDY    57  55  94 CALM      30.12S
$$
MNZ071>073-080-081-089-090-097-098-291000-
   Southwest Minnesota

CITY           SKY/WX    TMP DP  RH WIND       PRES   REMARKS
MONTEVIDEO     CLEAR     57  54  88 CALM      30.09F
GRANITE FALLS  CLEAR     56  55  95 NW3       30.09S
CANBY          CLEAR     57  55  92 NW3       30.09F
MARSHALL       CLEAR     54  52  93 NW3       30.08F
REDWOOD FALLS  CLEAR     61  55  81 CALM      30.06F
OLIVIA         CLEAR     55  54  94 NE3       30.06S
PIPESTONE      CLOUDY    61  55  82 N3        30.08F
WINDOM         CLEAR     57  55  94 N6        30.06F
WORTHINGTON    CLEAR     57  55  93 N7        30.07F
JACKSON        MOCLDY    59  55  88 VRB3      30.06F
TRACY          PTCLDY    60  57  89 NW5       30.08F
SLAYTON        CLEAR     55  54  95 NW5       30.08F
$$
MNZ065>067-074>077-082>085-091>093-291000-
   South Central Minnesota

CITY           SKY/WX    TMP DP  RH WIND       PRES   REMARKS
MANKATO        PTCLDY    64  57  77 NE5       30.05S
NEW ULM        CLOUDY    63  57  82 N3        30.05F
ST JAMES       CLOUDY    55  55 100 NW3       30.06S
FAIRMONT       CLOUDY    61  54  77 N5        30.04S
GLENCOE        CLEAR     61  59  94 N3        30.05F
FARIBAULT      CLOUDY    64  63  94 N3        30.04F
OWATONNA       CLOUDY    64  61  88 N3        30.04S
WASECA         CLOUDY    63  61  94 N7        30.05S
ALBERT LEA     HVY RAIN  64  61  88 N6        30.02F
$$
MNZ078>079-086>088-094>096-291000-
   Southeast Minnesota

CITY           SKY/WX    TMP DP  RH WIND       PRES   REMARKS
ROCHESTER      CLOUDY    63  60  90 NE8       30.03S
RED WING       CLOUDY    66  61  82 CALM      30.02F
STANTON        CLOUDY    64  63  94 CALM      30.03S
DODGE CENTER   CLOUDY   N/A N/A N/A NE7       30.03S
WINONA         CLOUDY    66  61  82 E8        30.01F
AUSTIN         CLOUDY    63  57  82 N6        30.01F
PRESTON        CLOUDY    61  59  93 NE8       30.01S
$$
ABBREVIATIONS USED IN REMARKS
   TC - TEMPERATURES IN CELSIUS
  WCI - WIND CHILL INDEX
   HX - HEAT INDEX
  VSB - VISIBILITY
$$



USA.gov is the U.S. government's official web portal to all federal, state and local government web resources and services.